Weather History for Fitchburg, MA

Change the Weather History Date:

Thursday, February 20, 2014

  Actual Average (KORH) Record (KORH)
Temperature  
Mean Temperature 29 °F 28 °F  
Max Temperature 46 °F 36 °F 65 °F (1930)
Min Temperature 12 °F 20 °F -8 °F (1966)
Degree Days  
Heating Degree Days 36 37  
Month to date heating degree days 775  
Since 1 July heating degree days 4548  
Cooling Degree Days 0 0  
Month to date cooling degree days 0  
Year to date cooling degree days 0  
Moisture  
Dew Point 23 °F    
Average Humidity 81    
Maximum Humidity 100    
Minimum Humidity 37    
Precipitation  
Precipitation 0.27 in 0.12 in 1.50 in (1934)
Month to date precipitation 2.27  
Year to date precipitation 5.76  
Sea Level Pressure  
Sea Level Pressure 30.11 in    
Wind  
Wind Speed 3 mph (West)    
Max Wind Speed 10 mph    
Max Gust Speed -    
Visibility 5 miles    
Events Fog , Rain    
T = Trace of Precipitation, MM = Missing Value Source: NWS Daily Summary

Daily Weather History Graph

Daily Weather History Graph

Search for Another Location

Airport:

Trip Planner

Search our weather history database for the weather conditions in past years. The results will help you decide how hot, cold, wet, or windy it might be!

Date:

Astronomy

Feb. 20, 2014 Rise Set
Actual Time 6:36 AM EST 5:25 PM EST
Civil Twilight 6:08 AM EST 5:54 PM EST
Nautical Twilight 5:35 AM EST 6:26 PM EST
Astronomical Twilight 5:02 AM EST 6:59 PM EST
Moon 11:25 PM EST (2/20) 9:09 AM EST (2/20)
Length of Visible Light 11h 46m
Length of Day
10h 48m
Waning Gibbous, 71% of the Moon is Illuminated
Feb 20
Waning Gibbous
Feb 22
Last Quarter
Mar 1
New
Mar 8
First Quarter
Mar 16
Full

Hourly Weather History & Observations

Time (EST) Temp. Windchill Dew Point Humidity Pressure Visibility Wind Dir Wind Speed Gust Speed Precip Events Conditions
12:52 AM 30.9 °F 23.5 °F 26.1 °F 82% 29.90 in 10.0 mi North 8.1 mph - N/A   Scattered Clouds
1:52 AM 33.1 °F 26.9 °F 28.0 °F 82% 29.94 in 10.0 mi North 6.9 mph - N/A   Clear
2:52 AM 26.1 °F - 23.0 °F 88% 29.96 in 3.0 mi Calm Calm - N/A   Clear
3:03 AM 25.0 °F - 24.1 °F 96% 29.95 in 1.5 mi Calm Calm - N/A   Clear
3:11 AM 23.0 °F - 21.9 °F 96% 29.95 in 0.8 mi Calm Calm - N/A   Mist
3:23 AM 24.1 °F - 21.0 °F 88% 29.96 in 1.2 mi Calm Calm - N/A   Partly Cloudy
3:28 AM 26.1 °F 18.4 °F 23.0 °F 88% 29.96 in 3.0 mi NNE 6.9 mph - N/A   Partly Cloudy
3:52 AM 25.0 °F - 23.0 °F 92% 29.97 in 6.0 mi Calm Calm - N/A   Clear
4:52 AM 26.1 °F - 24.1 °F 92% 30.04 in 9.0 mi Calm Calm - N/A   Clear
5:36 AM 21.9 °F 17.2 °F 19.9 °F 92% 30.04 in 1.8 mi West 3.5 mph - N/A   Clear
5:43 AM 21.0 °F 14.6 °F 19.9 °F 96% 30.04 in 3.0 mi Variable 4.6 mph - N/A   Clear
5:49 AM 19.4 °F - 17.6 °F 93% 30.05 in 1.8 mi Calm Calm - N/A   Clear
5:52 AM 21.0 °F - 18.0 °F 88% 30.07 in 1.2 mi Calm Calm - N/A   Clear
6:33 AM 16.0 °F - 12.9 °F 88% 30.11 in 1.0 mi Calm Calm - N/A   Clear
6:41 AM 19.9 °F - 16.0 °F 85% 30.11 in 2.0 mi Calm Calm - N/A   Clear
6:52 AM 12.9 °F - 12.0 °F 96% 30.14 in 1.5 mi Calm Calm - N/A   Clear
7:05 AM 17.1 °F - 15.1 °F 92% 30.13 in 2.0 mi Calm Calm - N/A   Clear
7:15 AM 14.0 °F - 14.0 °F 100% 30.13 in 0.8 mi Calm Calm - N/A   Clear
7:27 AM 17.1 °F - 14.0 °F 88% 30.13 in 1.2 mi Calm Calm - N/A   Clear
7:37 AM 18.0 °F - 17.1 °F 96% 30.13 in 2.5 mi Calm Calm - N/A   Clear
7:47 AM 17.6 °F - 15.8 °F 93% 30.14 in 1.0 mi Calm Calm - N/A   Clear
7:52 AM 18.0 °F 12.7 °F 17.1 °F 96% 30.15 in 0.2 mi SE 3.5 mph - N/A Fog Light Freezing Fog
8:02 AM 21.0 °F - 19.0 °F 92% 30.14 in 2.0 mi Calm Calm - N/A   Clear
8:39 AM 28.0 °F - 25.0 °F 88% 30.16 in 5.0 mi Calm Calm - N/A   Clear
8:52 AM 34.0 °F 28.8 °F 26.1 °F 73% 30.18 in 10.0 mi SW 5.8 mph - N/A   Clear
9:52 AM 37.9 °F 32.7 °F 27.0 °F 65% 30.20 in 10.0 mi West 6.9 mph - N/A   Clear
10:52 AM 39.9 °F 35.8 °F 27.0 °F 60% 30.19 in 10.0 mi WNW 5.8 mph - N/A   Clear
11:52 AM 44.1 °F 41.5 °F 24.1 °F 45% 30.18 in 10.0 mi West 4.6 mph - N/A   Clear
12:52 PM 46.0 °F 43.1 °F 21.0 °F 37% 30.17 in 10.0 mi WNW 5.8 mph - N/A   Clear
1:52 PM 46.0 °F 41.0 °F 21.9 °F 39% 30.18 in 10.0 mi West 10.4 mph - N/A   Clear
2:52 PM 46.0 °F 43.1 °F 23.0 °F 40% 30.18 in 10.0 mi Variable 5.8 mph - N/A   Clear
3:52 PM 44.1 °F 42.5 °F 25.0 °F 47% 30.18 in 10.0 mi SSW 3.5 mph - N/A   Partly Cloudy
4:52 PM 44.1 °F 42.5 °F 24.1 °F 45% 30.19 in 10.0 mi South 3.5 mph - N/A   Clear
5:52 PM 42.1 °F 40.2 °F 24.1 °F 49% 30.17 in 10.0 mi South 3.5 mph - N/A   Scattered Clouds
6:52 PM 37.9 °F 35.5 °F 28.0 °F 68% 30.19 in 10.0 mi NNE 3.5 mph - N/A   Overcast
7:52 PM 36.0 °F - 28.9 °F 76% 30.21 in 9.0 mi North - - 0.00 in Rain Light Rain
8:12 PM 39.0 °F 33.4 °F 30.9 °F 73% 30.21 in 7.0 mi WSW 8.1 mph - 0.01 in Rain Light Rain
8:52 PM 35.1 °F - 32.0 °F 89% 30.22 in 7.0 mi Calm Calm - 0.05 in Rain Light Rain
9:50 PM 33.8 °F - 32.0 °F 93% 30.19 in 2.5 mi Calm Calm - 0.11 in Rain Rain
9:52 PM 34.0 °F - 32.0 °F 92% 30.20 in 2.5 mi Calm Calm - 0.11 in Rain Rain
10:13 PM 34.0 °F - 32.0 °F 92% 30.18 in 3.0 mi Calm Calm - 0.04 in Rain Light Rain
10:52 PM 34.0 °F - 32.0 °F 92% 30.17 in 3.0 mi Calm Calm - 0.09 in Rain Light Rain
10:56 PM 34.0 °F - 32.0 °F 92% 30.16 in 2.5 mi Calm Calm - 0.00 in Rain Light Rain
11:05 PM 34.0 °F 31.0 °F 32.0 °F 92% 30.15 in 4.0 mi SE 3.5 mph - 0.01 in Rain Light Rain
11:52 PM 34.0 °F - 32.0 °F 92% 30.17 in 5.0 mi Calm Calm - 0.02 in   Overcast